Princeton, British Columbia

9:22 AM PST on December 15, 2017 (GMT -0800)
Princeton

Weather History for CWPR - September, 2012

Change the Weather History Date:

Sunday, September 2, 2012

  Actual Average (CYDC) Record (CYDC)
Temperature  
Mean Temperature 56 °F -  
Max Temperature 73 °F 71 °F 91 °F (2003)
Min Temperature 38 °F 44 °F 32 °F (2008)
Degree Days  
Heating Degree Days 10    
Growing Degree Days 6 (Base 50)    
Moisture  
Dew Point 36 °F    
Average Humidity 49    
Maximum Humidity 83    
Minimum Humidity 17    
Precipitation  
Precipitation 0.00 in - - ()
Sea Level Pressure  
Sea Level Pressure 30.11 in    
Wind  
Wind Speed 2 mph ()    
Max Wind Speed 16 mph    
Max Gust Speed 26 mph    
Averages and records for this station are not official NWS values.
T = Trace of Precipitation, MM = Missing Value Source: Averaged Metar Reports

Daily Weather History Graph

Daily Weather History Graph

Search for Another Location

Airport or City:

Trip Planner

Search our weather history database for the weather conditions in past years. The results will help you decide how hot, cold, wet, or windy it might be!

Date:

Astronomy

Sep. 02, 2012 Rise Set
Actual Time 6:20 AM PDT 7:41 PM PDT
Civil Twilight 5:47 AM PDT 8:14 PM PDT
Nautical Twilight 5:06 AM PDT 8:54 PM PDT
Astronomical Twilight 4:23 AM PDT 9:37 PM PDT
Moon 8:10 PM PDT (9/2) 8:52 AM PDT (9/2)
Length of Visible Light 14h 27m
Length of Day
13h 21m
Waning Gibbous, 95% of the Moon is Illuminated
Sep 2
Waning Gibbous
Sep 8
Last Quarter
Sep 15
New
Sep 22
First Quarter
Sep 29
Full

Hourly Weather History & Observations

Time (PDT) Temp. Dew Point Humidity Pressure Visibility Wind Dir Wind Speed Gust Speed Precip Events Conditions
12:00 AM 47.1 °F 34.2 °F 61% 30.09 in - Calm Calm - N/A   Unknown
1:00 AM 45.5 °F 34.5 °F 65% 30.10 in - Calm Calm - N/A   Unknown
2:00 AM 43.7 °F 34.2 °F 69% 30.11 in - Calm Calm - N/A   Unknown
3:00 AM 41.9 °F 34.2 °F 74% 30.13 in - Calm Calm - N/A   Unknown
4:00 AM 40.8 °F 34.0 °F 77% 30.13 in - Calm Calm - N/A   Unknown
5:00 AM 40 °F 34 °F 70% 30.14 in - East 1.2 mph - -  
5:00 AM 40.1 °F 33.6 °F 78% 30.14 in - East 1.2 mph - N/A   Unknown
6:00 AM 38.7 °F 33.3 °F 81% 30.14 in - Calm Calm - N/A   Unknown
7:00 AM 39.0 °F 34.2 °F 83% 30.16 in - Calm Calm - N/A   Unknown
8:00 AM 44.4 °F 35.6 °F 71% 30.16 in - Calm Calm - N/A   Unknown
9:00 AM 50.4 °F 36.5 °F 59% 30.16 in - Calm Calm - N/A   Unknown
10:00 AM 57.6 °F 37.4 °F 47% 30.14 in - Calm Calm - N/A   Unknown
11:00 AM 64 °F 37 °F 25% 30.12 in - SE 3.5 mph - -  
11:00 AM 63.5 °F 36.9 °F 37% 30.12 in - SE 3.5 mph - N/A   Unknown
12:00 PM 66.7 °F 36.3 °F 33% 30.10 in - ESE 4.6 mph - N/A   Unknown
1:00 PM 68.5 °F 36.1 °F 30% 30.08 in - ENE 5.8 mph - N/A   Unknown
2:00 PM 69.8 °F 36.1 °F 29% 30.08 in - ENE 2.3 mph - N/A   Unknown
3:00 PM 71.8 °F 35.4 °F 26% 30.07 in - West 11.5 mph 19.6 mph N/A   Unknown
4:00 PM 72.1 °F 36.5 °F 27% 30.07 in - WNW 8.1 mph - N/A   Unknown
5:00 PM 71 °F 36 °F 17% 30.08 in - WNW 11.5 mph - -  
5:00 PM 71.1 °F 36.0 °F 28% 30.08 in - WNW 11.5 mph 20.7 mph N/A   Unknown
6:00 PM 68.9 °F 36.0 °F 30% 30.08 in - West 12.7 mph 19.6 mph N/A   Unknown
7:00 PM 66.0 °F 36.0 °F 33% 30.08 in - West 16.1 mph 26.5 mph N/A   Unknown
8:00 PM 63.0 °F 36.9 °F 38% 30.09 in - Calm Calm - N/A   Unknown
9:00 PM 59.4 °F 36.1 °F 42% 30.11 in - NW 1.2 mph - N/A   Unknown
10:00 PM 55.2 °F 37.2 °F 51% 30.10 in - WNW 2.3 mph - N/A   Unknown
11:00 PM 51 °F 37 °F 47% 30.12 in - Calm Calm - -  
11:00 PM 51.4 °F 36.9 °F 58% 30.12 in - Calm Calm - N/A   Unknown